Hourly Data Report for October 23, 2020

MUSKOKA
ONTARIO
Current Station Operator: NAVCAN

44°58'29.000" N
79°18'12.000" W
281.90 m
6115529
71532
YQA

Download Data

Hourly Data (October 2020)
Hourly Data Report for October 23, 2020
TIME
LST
Temp Definition
°C
Dew Point Definition
°C
Rel Hum Definition
%
Precip. Amount Definition
mm

Wind Dir Definition
10's deg

Wind Spd Definition
km/h
Visibility Definition
km
Stn Press Definition
kPa
Hmdx Definition


Wind Chill Definition


Weather Definition


00:00 8.3 7.6 95 0.0 12 15 16.1 98.39     LegendNANA
01:00 8.5 8.1 97 0.0 12 17 12.9 98.30     LegendNANA
02:00 9.0 8.7 98 0.0 13 18 2.8 98.27     Fog
03:00 9.4 9.3 99 0.0 14 22 2.0 98.21     Fog
04:00 9.8 9.7 99 0.0 14 17 1.2 98.17     Fog
05:00 10.1 10.0 99 0.0 14 15 1.0 98.15     Fog
06:00 10.6 10.5 99 0.0 15 22 1.2 98.09     Fog
07:00 11.2 11.1 99 0.0 14 24 2.8 98.02     Fog
08:00 12.3 11.8 97 0.0 16 18 11.3 98.02     LegendNANA
09:00 14.1 13.0 93 0.0 14 22 16.1 97.92     LegendNANA
10:00 16.9 13.8 82 0.0 16 24 16.1 97.85     LegendNANA
11:00 18.6 14.4 76 0.0 16 22 16.1 97.80     LegendNANA
12:00 19.9 15.0 73 0.0 17 24 16.1 97.71     LegendNANA
13:00 20.7 15.5 72 0.0 15 24 16.1 97.60 25   LegendNANA
14:00 21.6 15.9 70 0.0 16 30 16.1 97.50 26   LegendNANA
15:00 21.5 16.1 71 0.0 17 24 16.1 97.37 26   LegendNANA
16:00 18.4 17.1 92 4.3 17 28 6.4 97.36     Thunderstorms,Heavy Rain, Fog
17:00 18.8 15.9 83 0.0 17 26 16.1 97.22     LegendNANA
18:00 15.6 14.3 92 9.6 20 15 16.1 97.34     Thunderstorms, Rain
19:00 15.3 14.4 94 2.8 19 18 16.1 97.28     Rain
20:00 15.6 14.5 93 0.5 19 17 16.1 97.21     LegendNANA
21:00 13.4 12.2 92 0.0 26 34 8.1 97.30     Fog
22:00 8.9 8.0 94 0.8 26 26 16.1 97.50     LegendNANA
23:00 6.9 5.7 92 0.0 26 26 16.1 97.64     LegendNANA

Notes on Data Quality.

Legend

  • E = Estimated
  • M = Missing
  • NA = Not Available*
  • [empty] = Indicates an unobserved value
Date modified: